Location: LDNL
(36.4545°S, 141.6685°E)
Time: 04:04:45
(UTC+11:00)

A-11 Canister half - Pass Details

Date: 19 August 2022
Orbit: 1524 x 1684 km, 47.3° (Epoch: 05 October)

Event Time Altitude Azimuth Distance (km) Brightness Sun altitude
Rises 16:39:27 0° 288° (WNW) 4,734 13.3 14.7°
Reaches altitude 10° 16:42:36 10° 285° (WNW) 3,737 13.1 14.2°
Maximum altitude 16:51:54 62° 204° (SSW) 1,702 9.5 12.5°
Drops below altitude 10° 17:01:10 10° 124° (SE) 3,712 10.4 10.8°
Sets 17:04:17 0° 120° (ESE) 4,701 10.9 10.2°
